When you browse on this site, cookies collect data to enhance your experience and personalize the content and advertising you see.
Visit our Privacy Policy to learn more. By continuing to use the site, you agree to this use of cookies and data.
EN

Hourly Weather Can Tho

Today, 4 July, Saturday

Time Temperature Precipitation Wind Pressure Humidity
00:00 +27°C° 0 mm 1 mps 756 mmHg 88%
01:00 +27°C° 0 mm 1 mps 756 mmHg 89%
02:00 +27°C° 0 mm 1 mps 756 mmHg 88%
03:00 +27°C° 0 mm 1 mps 756 mmHg 88%
04:00 +25°C° 0 mm 0 mps 756 mmHg 88%
05:00 +25°C° 0.4 mm 0 mps 756 mmHg 88%
06:00 +25°C° 0.4 mm 0 mps 756 mmHg 88%
07:00 +27°C° 0 mm 1 mps 757 mmHg 88%
08:00 +28°C° 0.7 mm 2 mps 757 mmHg 85%
09:00 +29°C° 0.7 mm 2 mps 757 mmHg 82%
10:00 +30°C° 0.7 mm 3 mps 757 mmHg 79%
11:00 +30°C° 0 mm 3 mps 757 mmHg 77%
12:00 +30°C° 0 mm 3 mps 756 mmHg 74%
13:00 +30°C° 0 mm 3 mps 756 mmHg 72%
14:00 +31°C° 0 mm 3 mps 756 mmHg 72%
15:00 +31°C° 0 mm 3 mps 755 mmHg 72%
16:00 +31°C° 0 mm 3 mps 754 mmHg 73%
17:00 +30°C° 0.1 mm 3 mps 755 mmHg 75%
18:00 +29°C° 0.1 mm 2 mps 755 mmHg 78%
19:00 +28°C° 0.1 mm 2 mps 756 mmHg 80%
20:00 +27°C° 0 mm 2 mps 756 mmHg 81%
21:00 +27°C° 0 mm 2 mps 756 mmHg 82%
22:00 +26°C° 0 mm 2 mps 757 mmHg 82%
23:00 +26°C° 0 mm 2 mps 757 mmHg 83%

Tomorrow, 5 July, Sunday

Time Temperature Precipitation Wind Pressure Humidity
00:00 +26°C° 0 mm 2 mps 756 mmHg 84%
01:00 +26°C° 0 mm 2 mps 756 mmHg 85%
02:00 +26°C° 0 mm 2 mps 756 mmHg 85%
03:00 +26°C° 0 mm 1 mps 755 mmHg 86%
04:00 +26°C° 0 mm 1 mps 755 mmHg 87%
05:00 +26°C° 0 mm 1 mps 755 mmHg 86%
06:00 +27°C° 0 mm 1 mps 756 mmHg 85%
07:00 +27°C° 0 mm 1 mps 756 mmHg 84%
08:00 +29°C° 0 mm 2 mps 756 mmHg 78%
09:00 +31°C° 0 mm 2 mps 756 mmHg 72%
10:00 +33°C° 0 mm 3 mps 756 mmHg 66%
11:00 +34°C° 0 mm 3 mps 755 mmHg 64%
12:00 +35°C° 0 mm 4 mps 755 mmHg 62%
13:00 +35°C° 0 mm 4 mps 754 mmHg 59%
14:00 +35°C° 0.6 mm 4 mps 754 mmHg 63%
15:00 +34°C° 0.6 mm 4 mps 753 mmHg 66%
16:00 +33°C° 0.6 mm 4 mps 753 mmHg 69%
17:00 +31°C° 0.5 mm 3 mps 753 mmHg 75%
18:00 +30°C° 0.5 mm 3 mps 753 mmHg 81%
19:00 +28°C° 0.5 mm 3 mps 753 mmHg 88%
20:00 +28°C° 0 mm 3 mps 754 mmHg 88%
21:00 +28°C° 0 mm 3 mps 754 mmHg 89%
22:00 +27°C° 0 mm 3 mps 755 mmHg 89%
23:00 +27°C° 0 mm 3 mps 755 mmHg 90%

Day after tomorrow, 6 July, Monday

Time Temperature Precipitation Wind Pressure Humidity
00:00 +27°C° 0 mm 2 mps 755 mmHg 90%
01:00 +27°C° 0 mm 2 mps 754 mmHg 91%
02:00 +27°C° 0 mm 2 mps 754 mmHg 91%
03:00 +27°C° 0 mm 2 mps 754 mmHg 92%
04:00 +27°C° 0 mm 1 mps 754 mmHg 92%
05:00 +27°C° 0 mm 1 mps 754 mmHg 91%
06:00 +28°C° 0 mm 1 mps 754 mmHg 89%
07:00 +28°C° 0 mm 1 mps 755 mmHg 88%
08:00 +29°C° 0.4 mm 2 mps 755 mmHg 83%
09:00 +31°C° 0.4 mm 2 mps 755 mmHg 77%
10:00 +32°C° 0.4 mm 2 mps 755 mmHg 72%
11:00 +32°C° 0.7 mm 2 mps 755 mmHg 70%
12:00 +34°C° 0.7 mm 2 mps 754 mmHg 67%
13:00 +34°C° 0.7 mm 2 mps 754 mmHg 65%
14:00 +32°C° 1.4 mm 2 mps 753 mmHg 71%
15:00 +31°C° 1.4 mm 3 mps 753 mmHg 76%
16:00 +30°C° 1.4 mm 3 mps 753 mmHg 82%
17:00 +29°C° 0.2 mm 3 mps 753 mmHg 84%
18:00 +29°C° 0.2 mm 2 mps 754 mmHg 87%
19:00 +28°C° 0.2 mm 2 mps 754 mmHg 89%
20:00 +28°C° 0 mm 2 mps 755 mmHg 90%
21:00 +27°C° 0 mm 2 mps 755 mmHg 92%
22:00 +27°C° 0 mm 2 mps 756 mmHg 93%
23:00 +27°C° 0 mm 2 mps 756 mmHg 92%

7 July, Tuesday

Time Temperature Precipitation Wind Pressure Humidity
00:00 +27°C° 0 mm 2 mps 755 mmHg 92%
01:00 +27°C° 0 mm 2 mps 755 mmHg 92%
02:00 +27°C° 0 mm 2 mps 755 mmHg 92%
03:00 +27°C° 0 mm 1 mps 755 mmHg 92%
04:00 +27°C° 0 mm 1 mps 755 mmHg 92%
05:00 +27°C° 0 mm 1 mps 755 mmHg 91%
06:00 +28°C° 0 mm 1 mps 756 mmHg 89%
07:00 +28°C° 0 mm 2 mps 756 mmHg 87%
08:00 +30°C° 0 mm 2 mps 756 mmHg 80%
09:00 +31°C° 0 mm 2 mps 756 mmHg 73%
10:00 +34°C° 0 mm 2 mps 757 mmHg 66%
11:00 +34°C° 1.2 mm 2 mps 756 mmHg 66%
12:00 +34°C° 1.2 mm 3 mps 756 mmHg 66%
13:00 +34°C° 1.2 mm 3 mps 756 mmHg 67%
14:00 +34°C° 1.7 mm 3 mps 755 mmHg 68%
15:00 +34°C° 1.7 mm 3 mps 755 mmHg 69%
16:00 +34°C° 1.7 mm 3 mps 754 mmHg 71%
17:00 +31°C° 0.6 mm 3 mps 755 mmHg 76%
18:00 +30°C° 0.6 mm 2 mps 755 mmHg 81%
19:00 +29°C° 0.6 mm 2 mps 756 mmHg 87%
20:00 +28°C° 0 mm 2 mps 756 mmHg 88%
21:00 +28°C° 0 mm 1 mps 757 mmHg 89%
22:00 +27°C° 0 mm 1 mps 757 mmHg 91%
23:00 +27°C° 0 mm 1 mps 757 mmHg 91%

8 July, Wednesday

Time Temperature Precipitation Wind Pressure Humidity
00:00 +27°C° 0 mm 1 mps 757 mmHg 92%
01:00 +27°C° 0 mm 1 mps 756 mmHg 93%
02:00 +27°C° 0 mm 1 mps 756 mmHg 93%
03:00 +27°C° 0 mm 1 mps 756 mmHg 93%
04:00 +27°C° 0 mm 1 mps 756 mmHg 93%
05:00 +27°C° 0 mm 1 mps 756 mmHg 92%
06:00 +26°C° 0 mm 0 mps 756 mmHg 90%
07:00 +26°C° 0 mm 0 mps 757 mmHg 88%
08:00 +29°C° 0 mm 1 mps 757 mmHg 82%
09:00 +31°C° 0 mm 1 mps 757 mmHg 75%
10:00 +32°C° 0 mm 2 mps 757 mmHg 68%
11:00 +32°C° 0.8 mm 2 mps 757 mmHg 67%
12:00 +34°C° 0.8 mm 2 mps 756 mmHg 67%
13:00 +34°C° 0.8 mm 2 mps 756 mmHg 66%
14:00 +32°C° 3 mm 2 mps 755 mmHg 69%
15:00 +32°C° 3 mm 2 mps 755 mmHg 72%
16:00 +31°C° 3 mm 3 mps 754 mmHg 76%
17:00 +30°C° 0.3 mm 2 mps 755 mmHg 79%
18:00 +29°C° 0.3 mm 2 mps 755 mmHg 82%
19:00 +28°C° 0.3 mm 1 mps 755 mmHg 86%
20:00 +28°C° 0 mm 1 mps 755 mmHg 87%
21:00 +28°C° 0 mm 1 mps 756 mmHg 88%
22:00 +27°C° 0 mm 1 mps 757 mmHg 89%
23:00 +27°C° 0 mm 1 mps 756 mmHg 90%

9 July, Thursday

Time Temperature Precipitation Wind Pressure Humidity
00:00 +27°C° 0 mm 1 mps 756 mmHg 91%
01:00 +27°C° 0 mm 1 mps 756 mmHg 91%
02:00 +27°C° 0 mm 1 mps 755 mmHg 91%
03:00 +27°C° 0 mm 1 mps 755 mmHg 91%
04:00 +26°C° 0 mm 1 mps 755 mmHg 91%
05:00 +27°C° 0 mm 1 mps 755 mmHg 90%
06:00 +27°C° 0 mm 1 mps 755 mmHg 89%
07:00 +28°C° 0 mm 1 mps 755 mmHg 88%
08:00 +29°C° 0 mm 1 mps 756 mmHg 82%
09:00 +31°C° 0 mm 1 mps 756 mmHg 75%
10:00 +32°C° 0 mm 2 mps 756 mmHg 68%
11:00 +34°C° 0.7 mm 2 mps 755 mmHg 68%
12:00 +34°C° 0.7 mm 2 mps 755 mmHg 68%
13:00 +34°C° 0.7 mm 2 mps 754 mmHg 68%
14:00 +34°C° 1.5 mm 2 mps 754 mmHg 69%
15:00 +34°C° 1.5 mm 2 mps 753 mmHg 69%
16:00 +34°C° 1.5 mm 2 mps 753 mmHg 69%
17:00 +32°C° 0.3 mm 2 mps 753 mmHg 74%
18:00 +30°C° 0.3 mm 2 mps 753 mmHg 78%
19:00 +29°C° 0.3 mm 2 mps 753 mmHg 83%
20:00 +29°C° 0 mm 2 mps 754 mmHg 84%
21:00 +28°C° 0 mm 2 mps 755 mmHg 86%
22:00 +28°C° 0 mm 2 mps 755 mmHg 87%
23:00 +28°C° 0 mm 2 mps 755 mmHg 88%
Show more